[[{"header":{"parameterUnit":"m.s-1","parameterCategory":1,"la1":30.2991,"la2":30.254,"lo1":-89.0895,"lo2":-89.0444,"dy":0.0017,"dx":0.0017,"nx":28,"ny":28,"refTime":"2023-08-12T21:00:00:Z","depth":0,"parameterNumber":2,"parameterNumberName":"U-component_of_WINDS"},"data":[0,0,0,0,0,0,0,0,0,0,0,0,0,0,0,0,0,0,0,0,0,0,0,0,0,0,0,0,0,0,0,0,0,0,0,0,0,0,0,0,0,0,0,0,0,0,0,0,0,0,0,0,0,0,0,0,0,0,1.3494,1.3495,0,1.3593,1.3594,1.3595,1.3604,1.3603,1.3602,1.3601,1.3706,1.371,1.3714,0,0,0,0,0,0,0,0,0,0,0,0,0,1.3315,1.3318,1.3494,1.3495,1.3496,1.3593,1.3594,1.3595,1.3604,1.3603,1.3602,1.36,1.3705,1.3709,1.3714,0,0,0,0,0,0,0,0,0,0,0,0,0,1.3401,1.3319,1.3494,1.3512,1.3515,1.3592,1.3594,1.3596,1.3605,1.3603,1.3601,1.36,1.3703,1.3709,1.3715,1.3782,0,0,1.3732,1.3734,0,0,0,0,0,0,0,0,1.3396,1.3408,1.3508,1.3511,1.3514,1.3584,1.357,1.3658,1.3605,1.3571,1.3601,1.3599,1.3667,1.3676,1.3698,1.3786,1.3791,1.3732,1.3736,1.3738,1.374,0,0,0,0,0,0,0,1.339,1.3404,1.3533,1.351,1.3513,1.3516,1.3527,1.3586,1.3627,1.3573,1.3574,1.3586,1.3669,1.3692,1.37,1.3793,1.3732,1.3737,1.3741,1.3743,1.394,1.3942,0,0,0,0,0,0,1.338,1.3399,1.353,1.3536,1.345,1.3521,1.3533,1.3564,1.3626,1.3634,1.3587,1.3586,1.3684,1.3694,1.3704,1.3786,1.3738,1.3744,1.3747,1.3939,1.3941,1.3943,0,0,0,0,0,0,1.3376,1.3392,1.3526,1.3468,1.3485,1.3526,1.356,1.3566,1.359,1.3636,1.3644,1.3604,1.3683,1.3696,1.3762,1.379,1.3746,1.3751,1.3936,1.3939,1.3942,1.3951,0,0,0,0,0,0,1.3371,1.3391,1.3416,1.3468,1.3488,1.3581,1.3562,1.3569,1.36,1.3599,1.3654,1.3662,1.3682,1.3753,1.3767,1.3797,1.3756,1.3934,1.3938,1.3941,1.3948,1.3953,1.3958,0,0,0,0,0,1.3365,1.3415,1.3417,1.3433,1.352,1.3583,1.3594,1.3616,1.3602,1.3628,1.3657,1.366,1.3785,1.376,1.3776,1.3808,1.3932,1.3937,1.3941,1.3946,1.3952,1.3958,0,0,0,0,0,0,1.3367,1.3422,1.3425,1.3494,1.3533,1.3584,1.3617,1.3622,1.3667,1.3665,1.3691,1.3704,1.3768,1.3795,1.3766,1.3875,1.3857,1.3865,1.3856,1.3862,1.3867,1.3859,1.3761,0,0,0,0,0,1.3375,1.342,1.3467,1.3523,1.3542,1.3576,1.3604,1.3618,1.366,1.3677,1.3712,1.3754,1.3802,1.3834,1.3881,1.3952,1.3964,1.3982,1.3987,1.399,1.3997,1.4035,1.4043,1.3956,1.3956,1.3956,0,0,1.3392,1.3428,1.3456,1.3524,1.3556,1.3603,1.359,1.3641,1.3676,1.3685,1.3749,1.3775,1.3824,1.3892,1.3924,1.3916,1.4023,1.3996,1.3998,1.4003,1.404,1.4049,1.4056,1.3959,1.3959,1.3958,0,0,1.3448,1.348,1.353,1.3562,1.361,1.3633,1.3644,1.3695,1.3712,1.3776,1.3784,1.3827,1.391,1.3944,1.3972,1.404,1.4044,1.4055,1.4081,1.4118,1.4125,1.4131,1.4155,1.4163,1.4061,1.4061,1.4061,0,1.3464,1.3534,1.3555,1.3605,1.3634,1.3644,1.3695,1.3725,1.3787,1.3808,1.3798,1.3902,1.3936,1.4011,1.4028,1.4051,1.4065,1.4049,1.4122,1.4129,1.4135,1.4158,1.4167,1.4062,1.4062,1.4062,1.4062,0,1.3551,1.3599,1.3634,1.3691,1.3725,1.3776,1.3805,1.3837,1.3847,1.3871,1.3935,1.3976,1.4031,1.405,1.4062,1.4128,1.4121,1.4117,1.4099,1.4144,1.4165,1.4174,1.4064,1.4063,1.4063,1.4063,0,0,1.361,1.3678,1.3691,1.3717,1.3771,1.3809,1.386,1.3912,1.3939,1.3982,1.4025,1.4094,1.409,1.4122,1.4137,1.417,1.4221,1.4162,1.4163,1.417,1.4295,1.4298,1.4308,1.4224,1.4225,1.4227,1.4291,0,1.3671,1.376,1.3781,1.3858,1.3902,1.3912,1.3956,1.3994,1.4018,1.406,1.4086,1.4135,1.4126,1.4145,1.4178,1.4207,1.4246,1.4203,1.4264,1.4266,1.4251,1.4319,1.4322,1.4381,1.43,1.4301,1.4302,0,1.3754,1.3797,1.3878,1.3925,1.3945,1.3984,1.4034,1.4074,1.4117,1.4132,1.4167,1.4179,1.4233,1.4212,1.4286,1.4257,1.4283,1.4301,1.4304,1.431,1.4286,1.4326,1.44,1.4408,1.4316,1.4315,1.4314,0,1.3788,1.3867,1.3925,1.3947,1.4004,1.4031,1.4056,1.4098,1.4129,1.4172,1.4192,1.4242,1.427,1.4308,1.4333,1.4316,1.4405,1.4387,1.4419,1.4418,1.4437,1.4435,1.4515,1.4455,1.4455,1.4455,1.4454,0,1.3854,1.3903,1.3941,1.3976,1.4032,1.4055,1.4109,1.4135,1.4172,1.4213,1.4225,1.4264,1.4295,1.4338,1.4358,1.4416,1.4429,1.4442,1.4447,1.4441,1.4439,1.4458,1.4454,1.4457,1.4457,1.4456,1.4456,0,1.3901,1.3928,1.3992,1.4041,1.4054,1.4093,1.4134,1.417,1.4193,1.4245,1.4259,1.4296,1.4347,1.4376,1.4441,1.4454,1.4518,1.4522,1.4503,1.4505,1.4535,1.4531,1.4629,1.4643,1.4574,1.4575,1.4576,0,1.3941,1.3979,1.4031,1.4059,1.4084,1.4129,1.4159,1.4184,1.4216,1.4268,1.4297,1.4349,1.4391,1.4472,1.4506,1.4555,1.4559,1.459,1.4567,1.4559,1.4559,1.4556,1.4559,1.4594,1.4594,1.4595,1.4595,0,1.4008,1.402,1.4063,1.411,1.4146,1.4185,1.4224,1.4246,1.4278,1.4312,1.4364,1.4397,1.4462,1.4513,1.4565,1.4592,1.4599,1.4602,1.4612,1.4606,1.4593,1.4599,1.4513,1.46,1.4599,1.4599,1.4599,1.4599,1.4052,1.4086,1.4128,1.4175,1.4206,1.4242,1.4277,1.4305,1.4348,1.4402,1.4415,1.4469,1.4512,1.4582,1.461,1.4653,1.4648,1.4662,1.4666,1.4669,1.4669,1.4587,1.4663,1.4663,1.4663,1.4663,1.4663,0,1.4119,1.4147,1.419,1.4243,1.428,1.4283,1.4326,1.4357,1.4404,1.4443,1.4484,1.4543,1.4593,1.4629,1.468,1.4708,1.4712,1.472,1.4718,1.4724,1.4672,1.4658,1.4715,1.4715,1.4715,1.4715,1.4715,1.4715,1.4159,1.4215,1.4232,1.4304,1.4331,1.4384,1.4408,1.4441,1.4472,1.4537,1.4577,1.4601,1.4639,1.4692,1.4738,1.4747,1.4765,1.4772,1.4782,1.4733,1.4727,1.4722,1.4709,1.4776,1.4776,1.483,1.4831,1.4831]},{"header":{"parameterUnit":"m.s-1","parameterCategory":1,"la1":30.2991,"la2":30.254,"lo1":-89.0895,"lo2":-89.0444,"dy":0.0017,"dx":0.0017,"nx":28,"ny":28,"refTime":"2023-08-12T21:00:00:Z","depth":0,"parameterNumber":3,"parameterNumberName":"V-component_of_WINDS"},"data":[0,0,0,0,0,0,0,0,0,0,0,0,0,0,0,0,0,0,0,0,0,0,0,0,0,0,0,0,0,0,0,0,0,0,0,0,0,0,0,0,0,0,0,0,0,0,0,0,0,0,0,0,0,0,0,0,0,0,4.2697,4.2697,0,4.2709,4.2709,4.2709,4.271,4.271,4.271,4.271,4.2718,4.2718,4.2719,0,0,0,0,0,0,0,0,0,0,0,0,0,4.2671,4.2671,4.2697,4.2697,4.2698,4.2709,4.2709,4.2709,4.271,4.271,4.271,4.271,4.2718,4.2718,4.2719,0,0,0,0,0,0,0,0,0,0,0,0,0,4.2682,4.2671,4.2697,4.27,4.27,4.2709,4.2709,4.2709,4.271,4.271,4.271,4.271,4.2718,4.2718,4.2719,4.2725,0,0,4.272,4.272,0,0,0,0,0,0,0,0,4.2682,4.2683,4.2699,4.27,4.27,4.2708,4.2702,4.2714,4.271,4.2706,4.271,4.271,4.2715,4.2715,4.2718,4.2725,4.2725,4.272,4.272,4.2721,4.2721,0,0,0,0,0,0,0,4.2681,4.2683,4.2702,4.2699,4.27,4.2698,4.27,4.2705,4.2711,4.2707,4.2707,4.2708,4.2715,4.2717,4.2718,4.2725,4.272,4.2721,4.2721,4.2721,4.2734,4.2734,0,0,0,0,0,0,4.268,4.2682,4.2701,4.2702,4.269,4.2699,4.2701,4.2706,4.2711,4.2712,4.2709,4.2708,4.2716,4.2717,4.2718,4.2723,4.2721,4.2721,4.2721,4.2734,4.2734,4.2734,0,0,0,0,0,0,4.268,4.2682,4.2701,4.2692,4.2694,4.27,4.2705,4.2706,4.2708,4.2712,4.2713,4.271,4.2716,4.2717,4.2722,4.2723,4.2721,4.2722,4.2734,4.2734,4.2734,4.2734,0,0,0,0,0,0,4.2679,4.2682,4.2686,4.2692,4.2695,4.2707,4.2705,4.2706,4.271,4.271,4.2714,4.2715,4.2716,4.2722,4.2723,4.2724,4.2722,4.2733,4.2734,4.2734,4.2734,4.2734,4.2734,0,0,0,0,0,4.2678,4.2685,4.2686,4.2688,4.27,4.2707,4.2708,4.2711,4.271,4.2712,4.2714,4.2715,4.2723,4.2722,4.2723,4.2725,4.2733,4.2734,4.2734,4.2734,4.2734,4.2734,0,0,0,0,0,0,4.2679,4.2687,4.2687,4.2697,4.2701,4.2707,4.2711,4.2712,4.2716,4.2715,4.2717,4.2718,4.2722,4.2724,4.2723,4.2729,4.2728,4.2728,4.2728,4.2728,4.2728,4.2727,4.2722,0,0,0,0,0,4.268,4.2687,4.2692,4.2701,4.2703,4.2706,4.271,4.2711,4.2715,4.2716,4.2719,4.2721,4.2724,4.2726,4.2729,4.2734,4.2733,4.2735,4.2735,4.2736,4.2736,4.2735,4.2735,4.2734,4.2734,4.2734,0,0,4.2683,4.2688,4.2692,4.2701,4.2704,4.2709,4.2708,4.2714,4.2716,4.2717,4.2721,4.2723,4.2725,4.273,4.2731,4.2731,4.2736,4.2736,4.2736,4.2736,4.2735,4.2735,4.2735,4.2734,4.2734,4.2734,0,0,4.269,4.2696,4.2702,4.2705,4.271,4.2712,4.2713,4.2718,4.2719,4.2724,4.2724,4.2726,4.2731,4.2732,4.2734,4.2737,4.2736,4.2738,4.2739,4.2738,4.2738,4.2738,4.2738,4.2738,4.2738,4.2738,4.2738,0,4.2693,4.2702,4.2705,4.271,4.2712,4.2713,4.2717,4.272,4.2725,4.2726,4.2725,4.273,4.2732,4.2735,4.2736,4.2738,4.2737,4.2738,4.2738,4.2738,4.2738,4.2738,4.2738,4.2738,4.2738,4.2738,4.2738,0,4.2703,4.2709,4.2712,4.2718,4.2721,4.2725,4.2727,4.2729,4.2729,4.273,4.2733,4.2735,4.2737,4.2738,4.2738,4.2739,4.2739,4.2738,4.2737,4.2739,4.2738,4.2738,4.2738,4.2738,4.2738,4.2738,0,0,4.2713,4.2718,4.2719,4.272,4.2724,4.2728,4.2731,4.2733,4.2734,4.2736,4.2737,4.2741,4.2739,4.2741,4.2741,4.274,4.274,4.274,4.2739,4.2738,4.2738,4.2738,4.2738,4.2739,4.2739,4.2739,4.2738,0,4.272,4.2727,4.2728,4.2734,4.2737,4.2736,4.2738,4.2739,4.2739,4.274,4.274,4.2741,4.2741,4.2741,4.2741,4.274,4.274,4.274,4.2738,4.2738,4.2737,4.2738,4.2738,4.2737,4.2737,4.2737,4.2737,0,4.2729,4.2732,4.2737,4.2738,4.2739,4.2742,4.2742,4.2744,4.2744,4.2744,4.2744,4.2743,4.2743,4.2742,4.2741,4.2741,4.274,4.2739,4.2739,4.2738,4.2738,4.2736,4.2736,4.2736,4.2737,4.2737,4.2737,0,4.2733,4.2738,4.2742,4.2743,4.2744,4.2745,4.2745,4.2745,4.2746,4.2746,4.2745,4.2745,4.2744,4.2743,4.2741,4.2741,4.2739,4.2739,4.2737,4.2737,4.2737,4.2737,4.2736,4.2737,4.2737,4.2737,4.2737,0,4.274,4.2743,4.2743,4.2745,4.2747,4.2747,4.2748,4.2748,4.2748,4.2748,4.2747,4.2746,4.2744,4.2743,4.2741,4.2739,4.2739,4.2737,4.2737,4.2737,4.2737,4.2736,4.2735,4.2737,4.2737,4.2737,4.2737,0,4.2745,4.2746,4.2749,4.2749,4.2749,4.2751,4.275,4.275,4.2749,4.2749,4.2749,4.2747,4.2745,4.2743,4.2741,4.2739,4.2736,4.2736,4.2737,4.2736,4.2734,4.2734,4.2732,4.2731,4.2734,4.2734,4.2734,0,4.275,4.2752,4.2752,4.2752,4.2752,4.2753,4.2753,4.2752,4.2751,4.275,4.275,4.2748,4.2746,4.2742,4.2739,4.2736,4.2735,4.2735,4.2735,4.2734,4.2733,4.2733,4.2732,4.2735,4.2735,4.2735,4.2735,0,4.2756,4.2755,4.2756,4.2756,4.2756,4.2755,4.2755,4.2755,4.2753,4.2752,4.275,4.2749,4.2745,4.2742,4.2738,4.2736,4.2734,4.2734,4.2734,4.2734,4.2733,4.2732,4.2735,4.2735,4.2735,4.2735,4.2735,4.2735,4.2759,4.276,4.2759,4.2759,4.2759,4.2757,4.2757,4.2756,4.2754,4.2752,4.2751,4.2748,4.2745,4.2739,4.2737,4.2734,4.2733,4.2733,4.2732,4.2732,4.2731,4.2734,4.2733,4.2733,4.2733,4.2733,4.2733,0,4.2764,4.2763,4.2763,4.2762,4.2761,4.276,4.2758,4.2757,4.2755,4.2752,4.275,4.2746,4.2743,4.2739,4.2734,4.2732,4.2731,4.2731,4.273,4.2729,4.2732,4.2733,4.2732,4.2732,4.2732,4.2732,4.2732,4.2732,4.2766,4.2766,4.2765,4.2764,4.2762,4.2761,4.2759,4.2757,4.2755,4.2751,4.2748,4.2746,4.2742,4.2736,4.2732,4.2731,4.2728,4.2728,4.2727,4.2729,4.273,4.273,4.273,4.2728,4.2728,4.2724,4.2724,4.2724]}]]